Time,TemperatureF,DewpointF,PressureIn,WindDirection,WindDirectionDegrees,WindSpeedMPH,WindSpeedGustMPH,Humidity,HourlyPrecipIn,Conditions,Clouds,dailyrainin,SoftwareType,DateUTC
2013-10-19 00:11:00,38.0,35.0,30.26,SW,215,0.0,-999.0,89,-99.99,,,-99.99,,2013-10-19 07:11:00,
2013-10-19 00:21:00,38.0,35.0,30.26,SW,215,0.0,-999.0,90,-99.99,,,-99.99,,2013-10-19 07:21:00,
2013-10-19 00:42:00,38.0,35.0,30.26,SW,215,0.0,-999.0,90,-99.99,,,-99.99,,2013-10-19 07:42:00,
2013-10-19 00:52:00,38.0,35.0,30.26,SW,215,0.0,-999.0,90,-99.99,,,-99.99,,2013-10-19 07:52:00,
2013-10-19 01:11:00,37.0,34.0,30.26,SW,215,0.0,-999.0,90,-99.99,,,-99.99,,2013-10-19 08:11:00,
2013-10-19 01:22:00,37.0,34.0,30.26,SW,215,0.0,-999.0,90,-99.99,,,-99.99,,2013-10-19 08:22:00,
2013-10-19 01:42:00,37.0,34.0,30.27,SW,215,0.0,-999.0,90,-99.99,,,-99.99,,2013-10-19 08:42:00,
2013-10-19 01:52:00,37.0,35.0,30.26,SW,215,0.0,-999.0,91,-99.99,,,-99.99,,2013-10-19 08:52:00,
2013-10-19 02:11:00,36.0,34.0,30.26,SW,215,0.0,-999.0,91,-99.99,,,-99.99,,2013-10-19 09:11:00,
2013-10-19 02:21:00,36.0,34.0,30.26,SW,215,0.0,-999.0,91,-99.99,,,-99.99,,2013-10-19 09:21:00,
2013-10-19 02:43:00,36.0,34.0,30.26,SW,215,0.0,-999.0,91,-99.99,,,-99.99,,2013-10-19 09:43:00,
2013-10-19 02:54:00,35.0,33.0,30.26,SW,215,0.0,-999.0,91,-99.99,,,-99.99,,2013-10-19 09:54:00,
2013-10-19 03:23:00,35.0,33.0,30.26,SW,215,0.0,-999.0,91,-99.99,,,-99.99,,2013-10-19 10:23:00,
2013-10-19 03:42:00,35.0,33.0,30.26,SW,215,0.0,-999.0,91,-99.99,,,-99.99,,2013-10-19 10:42:00,
2013-10-19 03:53:00,35.0,33.0,30.25,SW,215,0.0,-999.0,91,-99.99,,,-99.99,,2013-10-19 10:53:00,
2013-10-19 04:12:00,35.0,33.0,30.25,SW,215,0.0,-999.0,91,-99.99,,,-99.99,,2013-10-19 11:12:00,
2013-10-19 04:22:00,34.0,32.0,30.25,SW,215,0.0,-999.0,91,-99.99,,,-99.99,,2013-10-19 11:22:00,
2013-10-19 04:42:00,34.0,32.0,30.25,SW,215,0.0,-999.0,91,-99.99,,,-99.99,,2013-10-19 11:42:00,
2013-10-19 04:52:00,34.0,32.0,30.25,SW,215,0.0,-999.0,91,-99.99,,,-99.99,,2013-10-19 11:52:00,
2013-10-19 05:11:00,34.0,32.0,30.25,SW,215,0.0,-999.0,92,-99.99,,,-99.99,,2013-10-19 12:11:00,
2013-10-19 05:21:00,34.0,32.0,30.25,SW,215,0.0,-999.0,91,-99.99,,,-99.99,,2013-10-19 12:21:00,
2013-10-19 05:42:00,33.0,31.0,30.25,SW,215,0.0,-999.0,92,-99.99,,,-99.99,,2013-10-19 12:42:00,
2013-10-19 05:52:00,33.0,31.0,30.25,SW,215,0.0,-999.0,92,-99.99,,,-99.99,,2013-10-19 12:52:00,
2013-10-19 06:11:00,33.0,31.0,30.26,SW,215,0.0,-999.0,92,-99.99,,,-99.99,,2013-10-19 13:11:00,
2013-10-19 06:22:00,33.0,31.0,30.25,SW,215,0.0,-999.0,92,-99.99,,,-99.99,,2013-10-19 13:22:00,
2013-10-19 06:42:00,33.0,31.0,30.26,SW,215,0.0,-999.0,92,-99.99,,,-99.99,,2013-10-19 13:42:00,
2013-10-19 06:52:00,33.0,31.0,30.26,SW,215,0.0,-999.0,92,-99.99,,,-99.99,,2013-10-19 13:52:00,
2013-10-19 07:11:00,33.0,31.0,30.26,SW,215,0.0,-999.0,92,-99.99,,,-99.99,,2013-10-19 14:11:00,
2013-10-19 07:21:00,33.0,31.0,30.26,SW,215,0.0,-999.0,92,-99.99,,,-99.99,,2013-10-19 14:21:00,
2013-10-19 07:42:00,33.0,31.0,30.26,SW,215,0.0,-999.0,92,-99.99,,,-99.99,,2013-10-19 14:42:00,
2013-10-19 07:52:00,33.0,31.0,30.25,SW,215,0.0,-999.0,92,-99.99,,,-99.99,,2013-10-19 14:52:00,
2013-10-19 08:11:00,33.0,31.0,30.26,SW,215,0.0,-999.0,92,-99.99,,,-99.99,,2013-10-19 15:11:00,
2013-10-19 08:22:00,33.0,31.0,30.26,SW,215,0.0,-999.0,92,-99.99,,,-99.99,,2013-10-19 15:22:00,
2013-10-19 08:44:00,33.0,31.0,30.26,SW,215,1.0,-999.0,92,-99.99,,,-99.99,,2013-10-19 15:44:00,
2013-10-19 08:54:00,33.0,31.0,30.26,SW,215,0.0,-999.0,92,-99.99,,,-99.99,,2013-10-19 15:54:00,
2013-10-19 09:14:00,33.0,31.0,30.26,SW,215,0.0,-999.0,92,-99.99,,,-99.99,,2013-10-19 16:14:00,
2013-10-19 09:24:00,34.0,32.0,30.26,SW,215,0.0,-999.0,92,-99.99,,,-99.99,,2013-10-19 16:24:00,
2013-10-19 09:53:00,37.0,35.0,30.26,SW,215,0.0,-999.0,91,-99.99,,,-99.99,,2013-10-19 16:53:00,
2013-10-19 10:13:00,39.0,36.0,30.26,SW,215,0.0,-999.0,89,-99.99,,,-99.99,,2013-10-19 17:13:00,
2013-10-19 10:22:00,40.0,36.0,30.25,SW,215,0.0,-999.0,86,-99.99,,,-99.99,,2013-10-19 17:22:00,
2013-10-19 10:43:00,42.0,37.0,30.24,SW,215,1.0,-999.0,83,-99.99,,,-99.99,,2013-10-19 17:43:00,
2013-10-19 10:52:00,43.0,38.0,30.24,SW,215,1.0,-999.0,81,-99.99,,,-99.99,,2013-10-19 17:52:00,
2013-10-19 11:12:00,45.0,38.0,30.23,SW,215,1.0,-999.0,77,-99.99,,,-99.99,,2013-10-19 18:12:00,
2013-10-19 11:21:00,47.0,38.0,30.22,SSW,205,0.0,-999.0,72,-99.99,,,-99.99,,2013-10-19 18:21:00,
2013-10-19 11:42:00,48.0,39.0,30.21,SSW,202,1.0,-999.0,71,-99.99,,,-99.99,,2013-10-19 18:42:00,
2013-10-19 11:52:00,49.0,39.0,30.20,SSW,200,1.0,-999.0,67,-99.99,,,-99.99,,2013-10-19 18:52:00,
2013-10-19 12:12:00,50.0,38.0,30.19,SSW,200,1.0,-999.0,64,-99.99,,,-99.99,,2013-10-19 19:12:00,
2013-10-19 12:22:00,51.0,38.0,30.19,SSW,201,1.0,-999.0,62,-99.99,,,-99.99,,2013-10-19 19:22:00,
2013-10-19 12:42:00,53.0,39.0,30.18,SSW,201,1.0,-999.0,59,-99.99,,,-99.99,,2013-10-19 19:42:00,
2013-10-19 12:52:00,55.0,40.0,30.16,South,175,0.0,-999.0,56,-99.99,,,-99.99,,2013-10-19 19:52:00,
2013-10-19 13:11:00,55.0,41.0,30.15,South,176,1.0,-999.0,58,-99.99,,,-99.99,,2013-10-19 20:11:00,
2013-10-19 13:22:00,56.0,39.0,30.14,South,176,0.0,-999.0,53,-99.99,,,-99.99,,2013-10-19 20:22:00,
2013-10-19 13:42:00,57.0,40.0,30.13,South,176,1.0,-999.0,53,-99.99,,,-99.99,,2013-10-19 20:42:00,
2013-10-19 13:52:00,58.0,39.0,30.13,South,176,1.0,-999.0,49,-99.99,,,-99.99,,2013-10-19 20:52:00,
2013-10-19 14:21:00,60.0,39.0,30.11,South,180,1.0,-999.0,45,-99.99,,,-99.99,,2013-10-19 21:21:00,
2013-10-19 14:44:00,61.0,40.0,30.11,South,180,1.0,-999.0,45,-99.99,,,-99.99,,2013-10-19 21:44:00,
2013-10-19 14:54:00,61.0,41.0,30.09,South,180,2.0,-999.0,48,-99.99,,,-99.99,,2013-10-19 21:54:00,
2013-10-19 15:14:00,62.0,43.0,30.09,South,180,1.0,-999.0,49,-99.99,,,-99.99,,2013-10-19 22:14:00,
2013-10-19 15:24:00,61.0,42.0,30.09,South,180,1.0,-999.0,49,-99.99,,,-99.99,,2013-10-19 22:24:00,
2013-10-19 15:43:00,62.0,43.0,30.09,South,180,0.0,-999.0,49,-99.99,,,-99.99,,2013-10-19 22:43:00,
2013-10-19 15:53:00,61.0,46.0,30.08,South,180,0.0,-999.0,57,-99.99,,,-99.99,,2013-10-19 22:53:00,
2013-10-19 16:12:00,60.0,43.0,30.08,South,180,0.0,-999.0,54,-99.99,,,-99.99,,2013-10-19 23:12:00,
2013-10-19 16:22:00,60.0,44.0,30.08,South,180,0.0,-999.0,56,-99.99,,,-99.99,,2013-10-19 23:22:00,
2013-10-19 16:42:00,58.0,44.0,30.08,South,180,0.0,-999.0,60,-99.99,,,-99.99,,2013-10-19 23:42:00,
2013-10-19 16:52:00,57.0,44.0,30.08,South,180,0.0,-999.0,62,-99.99,,,-99.99,,2013-10-19 23:52:00,
2013-10-19 17:11:00,56.0,44.0,30.07,South,180,0.0,-999.0,65,-99.99,,,-99.99,,2013-10-20 00:11:00,
2013-10-19 17:22:00,54.0,43.0,30.07,South,180,0.0,-999.0,67,-99.99,,,-99.99,,2013-10-20 00:22:00,
2013-10-19 17:42:00,53.0,42.0,30.08,South,180,0.0,-999.0,66,-99.99,,,-99.99,,2013-10-20 00:42:00,
2013-10-19 17:52:00,53.0,43.0,30.08,South,180,0.0,-999.0,68,-99.99,,,-99.99,,2013-10-20 00:52:00,
2013-10-19 18:11:00,52.0,43.0,30.08,South,180,0.0,-999.0,71,-99.99,,,-99.99,,2013-10-20 01:11:00,
2013-10-19 18:21:00,52.0,44.0,30.08,South,180,0.0,-999.0,73,-99.99,,,-99.99,,2013-10-20 01:21:00,
2013-10-19 18:42:00,51.0,43.0,30.08,South,180,0.0,-999.0,75,-99.99,,,-99.99,,2013-10-20 01:42:00,
2013-10-19 18:52:00,51.0,43.0,30.08,South,180,0.0,-999.0,75,-99.99,,,-99.99,,2013-10-20 01:52:00,
2013-10-19 19:11:00,50.0,43.0,30.09,South,180,0.0,-999.0,77,-99.99,,,-99.99,,2013-10-20 02:11:00,
2013-10-19 19:21:00,50.0,43.0,30.09,South,180,0.0,-999.0,77,-99.99,,,-99.99,,2013-10-20 02:21:00,
2013-10-19 19:42:00,49.0,42.0,30.09,South,180,0.0,-999.0,78,-99.99,,,-99.99,,2013-10-20 02:42:00,
2013-10-19 19:52:00,49.0,43.0,30.10,South,180,0.0,-999.0,79,-99.99,,,-99.99,,2013-10-20 02:52:00,
2013-10-19 20:12:00,49.0,43.0,30.10,South,180,0.0,-999.0,80,-99.99,,,-99.99,,2013-10-20 03:12:00,
2013-10-19 20:21:00,48.0,42.0,30.10,South,180,0.0,-999.0,81,-99.99,,,-99.99,,2013-10-20 03:21:00,
2013-10-19 20:44:00,47.0,42.0,30.11,South,180,0.0,-999.0,82,-99.99,,,-99.99,,2013-10-20 03:44:00,
2013-10-19 20:54:00,47.0,42.0,30.11,South,180,0.0,-999.0,84,-99.99,,,-99.99,,2013-10-20 03:54:00,
2013-10-19 21:02:00,-999.0,-99.9,30.12,South,180,0.0,-999.0,-999,-99.99,,,-99.99,,2013-10-20 04:02:00,
2013-10-19 21:14:00,46.0,41.0,30.12,South,180,0.0,-999.0,84,-99.99,,,-99.99,,2013-10-20 04:14:00,
2013-10-19 21:24:00,46.0,41.0,30.12,South,180,0.0,-999.0,84,-99.99,,,-99.99,,2013-10-20 04:24:00,
2013-10-19 21:54:00,45.0,41.0,30.14,SSE,148,1.0,-999.0,86,-99.99,,,-99.99,,2013-10-20 04:54:00,
2013-10-19 22:13:00,45.0,41.0,30.14,SSE,148,0.0,-999.0,86,-99.99,,,-99.99,,2013-10-20 05:13:00,
2013-10-19 22:23:00,45.0,41.0,30.14,SSE,148,0.0,-999.0,86,-99.99,,,-99.99,,2013-10-20 05:23:00,
2013-10-19 22:43:00,45.0,41.0,30.14,SSE,148,0.0,-999.0,86,-99.99,,,-99.99,,2013-10-20 05:43:00,
2013-10-19 22:52:00,44.0,40.0,30.14,SSE,148,0.0,-999.0,86,-99.99,,,-99.99,,2013-10-20 05:52:00,
2013-10-19 23:12:00,44.0,40.0,30.14,SSE,148,0.0,-999.0,87,-99.99,,,-99.99,,2013-10-20 06:12:00,
2013-10-19 23:22:00,43.0,39.0,30.15,SSE,148,0.0,-999.0,87,-99.99,,,-99.99,,2013-10-20 06:22:00,
2013-10-19 23:52:00,43.0,40.0,30.15,SE,146,0.0,-999.0,88,-99.99,,,-99.99,,2013-10-20 06:52:00,